Terug naar catalogus

CZ-4 DEB

ActiefSSO
NORAD 26351·DEBRIS·🇨🇳 China

Gelanceerd Oct 14, 1999 vanaf Taiyuan Satellite Launch Center

Loading…

Volgende Passages (komende 24 uur)

TLE

VersSource: Space-Track

Epoch: Sep 14, 2026, 18:58 UTC

1 26351U 99057JL  26257.79054808  .00000694  00000-0  17446-3 0  9994
2 26351  98.6133 286.9585 0056515 113.0955 247.6211 14.53565249397510

Volg CZ-4 DEB in realtime met AllMySat

Download on the App Store